When you browse on this site, cookies collect data to enhance your experience and personalize the content and advertising you see.
Visit our Privacy Policy to learn more. By continuing to use the site, you agree to this use of cookies and data.
  • In Spain
  • List of Countries
  • For 7 days
  • Water Temperature
  • Satellite Maps
  • Weather Map
  • Weather Widgets
  • user-avatar
    Login

    Hourly Weather Verhnee Zagluhino

    Today, 21 March, Thursday

    Time Temperature Precipitation Wind Pressure Humidity
    00:00 -3°C° 0 mm 2 mps 747 mmHg 90%
    01:00 -3°C° 0 mm 2 mps 747 mmHg 91%
    02:00 -3°C° 0 mm 2 mps 747 mmHg 91%
    03:00 -2°C° 0 mm 3 mps 747 mmHg 92%
    04:00 -2°C° 0 mm 2 mps 746 mmHg 91%
    05:00 -2°C° 0 mm 2 mps 746 mmHg 91%
    06:00 -2°C° 0 mm 2 mps 746 mmHg 90%
    07:00 -2°C° 0 mm 3 mps 746 mmHg 88%
    08:00 -1°C° 0 mm 3 mps 745 mmHg 85%
    09:00 -1°C° 0 mm 3 mps 745 mmHg 82%
    10:00 -1°C° 0.1 mm 4 mps 745 mmHg 82%
    11:00 -1°C° 0.1 mm 4 mps 744 mmHg 81%
    12:00 0°C° 0.1 mm 4 mps 744 mmHg 80%
    13:00 0°C° 0.1 mm 4 mps 744 mmHg 80%
    14:00 0°C° 0.1 mm 4 mps 744 mmHg 80%
    15:00 0°C° 0.1 mm 4 mps 744 mmHg 80%
    16:00 +1°C° 0 mm 3 mps 744 mmHg 83%
    17:00 +1°C° 0 mm 3 mps 744 mmHg 86%
    18:00 +1°C° 0 mm 2 mps 744 mmHg 90%
    19:00 +1°C° 0 mm 2 mps 744 mmHg 91%
    20:00 -1°C° 0 mm 2 mps 744 mmHg 92%
    21:00 -2°C° 0 mm 3 mps 744 mmHg 94%
    22:00 -2°C° 0 mm 3 mps 744 mmHg 94%
    23:00 -2°C° 0 mm 2 mps 744 mmHg 94%

    Tomorrow, 22 March, Friday

    Time Temperature Precipitation Wind Pressure Humidity
    00:00 -2°C° 0 mm 2 mps 744 mmHg 94%
    01:00 -2°C° 0 mm 2 mps 744 mmHg 92%
    02:00 -2°C° 0 mm 2 mps 744 mmHg 91%
    03:00 -2°C° 0 mm 2 mps 743 mmHg 90%
    04:00 -2°C° 0 mm 3 mps 743 mmHg 90%
    05:00 -2°C° 0 mm 3 mps 742 mmHg 91%
    06:00 -3°C° 0 mm 4 mps 741 mmHg 91%
    07:00 -2°C° 0.1 mm 4 mps 740 mmHg 90%
    08:00 -2°C° 0.1 mm 5 mps 739 mmHg 89%
    09:00 -2°C° 0.1 mm 6 mps 738 mmHg 87%
    10:00 -1°C° 0.8 mm 6 mps 737 mmHg 88%
    11:00 -1°C° 0.8 mm 6 mps 736 mmHg 88%
    12:00 -1°C° 0.8 mm 7 mps 735 mmHg 89%
    13:00 -1°C° 0.7 mm 7 mps 735 mmHg 88%
    14:00 -1°C° 0.7 mm 8 mps 734 mmHg 87%
    15:00 -1°C° 0.7 mm 9 mps 734 mmHg 87%
    16:00 -3°C° 0.2 mm 9 mps 734 mmHg 85%
    17:00 -3°C° 0.2 mm 9 mps 735 mmHg 84%
    18:00 -4°C° 0.2 mm 10 mps 735 mmHg 82%
    19:00 -4°C° 0.3 mm 9 mps 735 mmHg 84%
    20:00 -5°C° 0.3 mm 9 mps 736 mmHg 86%
    21:00 -5°C° 0.3 mm 8 mps 736 mmHg 88%
    22:00 -5°C° 0.6 mm 8 mps 736 mmHg 89%
    23:00 -5°C° 0.6 mm 8 mps 736 mmHg 90%

    Day after tomorrow, 23 March, Saturday

    Time Temperature Precipitation Wind Pressure Humidity
    00:00 -5°C° 0.6 mm 8 mps 737 mmHg 91%
    01:00 -4°C° 0.4 mm 8 mps 737 mmHg 91%
    02:00 -4°C° 0.4 mm 8 mps 738 mmHg 91%
    03:00 -2°C° 0.4 mm 8 mps 738 mmHg 91%
    04:00 -2°C° 0.1 mm 8 mps 739 mmHg 91%
    05:00 -3°C° 0.1 mm 7 mps 740 mmHg 92%
    06:00 -3°C° 0.1 mm 7 mps 741 mmHg 92%
    07:00 -3°C° 0 mm 6 mps 742 mmHg 91%
    08:00 -3°C° 0 mm 6 mps 743 mmHg 91%
    09:00 -4°C° 0 mm 6 mps 744 mmHg 90%
    10:00 -3°C° 0.1 mm 6 mps 745 mmHg 89%
    11:00 -2°C° 0.1 mm 5 mps 745 mmHg 89%
    12:00 -2°C° 0.1 mm 5 mps 746 mmHg 88%
    13:00 -2°C° 0 mm 5 mps 746 mmHg 88%
    14:00 -2°C° 0 mm 4 mps 746 mmHg 87%
    15:00 -1°C° 0 mm 4 mps 746 mmHg 87%
    16:00 0°C° 0 mm 3 mps 746 mmHg 87%
    17:00 +1°C° 0 mm 2 mps 746 mmHg 87%
    18:00 -1°C° 0 mm 2 mps 746 mmHg 87%
    19:00 -1°C° 0 mm 2 mps 746 mmHg 87%
    20:00 +1°C° 0 mm 1 mps 746 mmHg 87%
    21:00 +1°C° 0 mm 1 mps 746 mmHg 87%
    22:00 +1°C° 0 mm 1 mps 746 mmHg 87%
    23:00 0°C° 0 mm 1 mps 745 mmHg 86%

    24 March, Sunday

    Time Temperature Precipitation Wind Pressure Humidity
    00:00 0°C° 0 mm 1 mps 745 mmHg 86%
    01:00 0°C° 0 mm 1 mps 745 mmHg 87%
    02:00 -3°C° 0 mm 2 mps 744 mmHg 87%
    03:00 -3°C° 0 mm 2 mps 744 mmHg 88%
    04:00 -3°C° 0 mm 2 mps 743 mmHg 88%
    05:00 -4°C° 0 mm 3 mps 743 mmHg 88%
    06:00 -4°C° 0 mm 3 mps 742 mmHg 88%
    07:00 -4°C° 0 mm 4 mps 742 mmHg 87%
    08:00 -3°C° 0 mm 4 mps 742 mmHg 87%
    09:00 -4°C° 0 mm 5 mps 741 mmHg 86%
    10:00 -2°C° 0.3 mm 5 mps 741 mmHg 88%
    11:00 -2°C° 0.3 mm 5 mps 740 mmHg 90%
    12:00 -3°C° 0.3 mm 6 mps 740 mmHg 92%
    13:00 -1°C° 0.2 mm 5 mps 740 mmHg 93%
    14:00 -1°C° 0.2 mm 5 mps 739 mmHg 94%
    15:00 -1°C° 0.2 mm 5 mps 739 mmHg 95%
    16:00 -1°C° 0 mm 4 mps 739 mmHg 94%
    17:00 0°C° 0 mm 3 mps 739 mmHg 93%
    18:00 +1°C° 0 mm 2 mps 739 mmHg 92%
    19:00 +1°C° 0.1 mm 2 mps 739 mmHg 90%
    20:00 0°C° 0.1 mm 3 mps 739 mmHg 88%
    21:00 -1°C° 0.1 mm 3 mps 739 mmHg 86%
    22:00 -1°C° 0 mm 3 mps 739 mmHg 87%
    23:00 -2°C° 0 mm 3 mps 739 mmHg 87%

    25 March, Monday

    Time Temperature Precipitation Wind Pressure Humidity
    00:00 -4°C° 0 mm 3 mps 739 mmHg 88%
    01:00 -4°C° 0 mm 3 mps 739 mmHg 88%
    02:00 -5°C° 0 mm 3 mps 739 mmHg 88%
    03:00 -5°C° 0 mm 3 mps 739 mmHg 88%
    04:00 -5°C° 0 mm 3 mps 739 mmHg 89%
    05:00 -5°C° 0 mm 3 mps 739 mmHg 90%
    06:00 -6°C° 0 mm 3 mps 739 mmHg 90%
    07:00 -5°C° 0 mm 4 mps 739 mmHg 87%
    08:00 -4°C° 0 mm 4 mps 740 mmHg 84%
    09:00 -4°C° 0 mm 4 mps 740 mmHg 81%
    10:00 -3°C° 0 mm 4 mps 740 mmHg 77%
    11:00 -2°C° 0 mm 4 mps 740 mmHg 72%
    12:00 -1°C° 0 mm 4 mps 740 mmHg 67%
    13:00 -1°C° 0 mm 4 mps 739 mmHg 64%
    14:00 -1°C° 0 mm 4 mps 739 mmHg 62%
    15:00 0°C° 0 mm 4 mps 739 mmHg 59%
    16:00 0°C° 0 mm 3 mps 739 mmHg 62%
    17:00 0°C° 0 mm 3 mps 739 mmHg 65%
    18:00 -1°C° 0 mm 2 mps 739 mmHg 68%
    19:00 -1°C° 0 mm 2 mps 739 mmHg 70%
    20:00 -2°C° 0 mm 3 mps 739 mmHg 72%
    21:00 -2°C° 0 mm 3 mps 739 mmHg 75%
    22:00 -2°C° 0 mm 3 mps 738 mmHg 76%
    23:00 -2°C° 0 mm 3 mps 738 mmHg 77%

    26 March, Tuesday

    Time Temperature Precipitation Wind Pressure Humidity
    00:00 -3°C° 0 mm 4 mps 738 mmHg 78%
    01:00 -3°C° 0 mm 4 mps 738 mmHg 79%
    02:00 -3°C° 0 mm 4 mps 738 mmHg 79%
    03:00 -3°C° 0 mm 4 mps 738 mmHg 80%
    04:00 -2°C° 0 mm 3 mps 737 mmHg 80%
    05:00 -2°C° 0 mm 3 mps 737 mmHg 79%
    06:00 -2°C° 0 mm 3 mps 737 mmHg 79%
    07:00 -2°C° 0 mm 3 mps 738 mmHg 76%
    08:00 -2°C° 0 mm 4 mps 738 mmHg 72%
    09:00 -2°C° 0 mm 4 mps 738 mmHg 69%
    10:00 -1°C° 0 mm 4 mps 738 mmHg 65%
    11:00 0°C° 0 mm 4 mps 738 mmHg 61%
    12:00 +1°C° 0 mm 4 mps 738 mmHg 57%
    13:00 +3°C° 0 mm 4 mps 738 mmHg 57%
    14:00 +3°C° 0 mm 4 mps 738 mmHg 57%
    15:00 +3°C° 0 mm 4 mps 738 mmHg 57%
    16:00 +1°C° 0 mm 4 mps 739 mmHg 63%
    17:00 +1°C° 0 mm 3 mps 739 mmHg 69%
    18:00 +1°C° 0 mm 3 mps 739 mmHg 75%
    19:00 0°C° 0 mm 3 mps 740 mmHg 77%
    20:00 -1°C° 0 mm 3 mps 740 mmHg 80%
    21:00 -2°C° 0 mm 3 mps 741 mmHg 82%
    22:00 -2°C° 0 mm 3 mps 741 mmHg 83%
    23:00 -2°C° 0 mm 3 mps 741 mmHg 85%
    Show more